Location: Las Vegas
(36.1750°N, 115.1360°W)
Time: 14:34:29
(UTC-07:00)

Amateur Radio Satellites - All Passes

Search period start: 21 October 2014 14:04
Search period end: 22 October 2014 14:04
Location: Las Vegas, 36.1750°N, 115.1360°W

Satellite Date Start Highest point End Downlink Frequencies (MHz)
Time Altitude Azimuth
ISS 21 Oct 14:07:45 14:10:59 48° 322° (NW) 14:14:14 145.800 FM
Uribyol 2 21 Oct 14:16:22 14:21:34 76° 257° (WSW) 14:26:49 436.500 FM
Gurwin Techsat 1B 21 Oct 14:19:40 14:24:50 55° 73° (ENE) 14:30:00 435.225 FM
ITAMSAT 1 21 Oct 14:21:28 14:26:38 72° 258° (WSW) 14:31:52 435.822 SSB
AO-Echo 21 Oct 14:28:48 14:33:24 45° 261° (W) 14:38:09 ?
TMSAT-1 21 Oct 14:33:21 14:38:29 54° 73° (ENE) 14:43:39 436.925 FM
KITSAT 1 21 Oct 14:33:59 14:40:33 27° 314° (NW) 14:47:08 435.175 FM
SO-50 21 Oct 14:45:30 14:49:03 22° 311° (NW) 14:52:41 436.795 FM
UOSAT-12 21 Oct 14:47:54 14:52:08 37° 114° (ESE) 14:56:28 437.025 FM, 437.400 FM
Sapphire 21 Oct 14:56:34 15:01:31 37° 250° (WSW) 15:06:26 437.095 MHz 1200 baud AX-25 AFSK
Oscar 19 21 Oct 15:01:40 15:03:23 12° 269° (W) 15:05:07 437.125 CW, 437.150 USB
AO-27 21 Oct 15:07:16 15:11:31 25° 264° (W) 15:15:48 436.795 MHz FM
PCSat 21 Oct 15:20:20 15:24:17 21° 254° (WSW) 15:28:13 145.825 MHz
AO-7 21 Oct 15:25:30 15:33:22 51° 66° (ENE) 15:41:15 29.400 - 29.500 MHz
ISS 21 Oct 15:47:55 15:48:21 10° 340° (NNW) 15:48:46 145.800 FM
Gurwin Techsat 1B 21 Oct 16:01:55 16:05:05 16° 268° (W) 16:08:16 435.225 FM
JAS-2 21 Oct 16:05:29 16:08:59 16° 59° (ENE) 16:12:42 435.800 - 435.900 CW/SSB, 435.910 FM
Uosat F 21 Oct 16:10:00 16:14:58 68° 74° (ENE) 16:19:59 435.120 FM
TMSAT-1 21 Oct 16:15:29 16:18:41 16° 268° (W) 16:21:54 436.925 FM
UOSAT-12 21 Oct 16:28:40 16:32:23 23° 310° (NW) 16:36:09 437.025 FM, 437.400 FM
Hamsat 21 Oct 16:33:06 16:34:28 11° 66° (ENE) 16:35:50 145.90 MHz
Saudisat 1A 21 Oct 16:46:24 16:50:14 28° 52° (NE) 16:54:03 436.775 MHz
AO-7 21 Oct 17:19:07 17:26:17 33° 262° (W) 17:33:31 29.400 - 29.500 MHz
AO-40 21 Oct 17:36:28 23:36:46 48° 183° (S) 08:02:13 Beacon 2401.320
OPAL 21 Oct 17:41:43 17:46:36 55° 103° (ESE) 17:51:26 ?
JAS-2 21 Oct 17:47:33 17:53:09 70° 259° (W) 17:59:32 435.800 - 435.900 CW/SSB, 435.910 FM
Uosat F 21 Oct 17:52:39 17:54:11 11° 269° (W) 17:55:43 435.120 FM
Hamsat 21 Oct 18:05:48 18:09:56 53° 260° (W) 18:14:03 145.90 MHz
Saudisat 1A 21 Oct 18:26:01 18:29:42 26° 248° (WSW) 18:33:22 436.775 MHz
SO-67 21 Oct 18:37:15 18:40:23 34° 74° (ENE) 18:43:32 435.3500 MHz FM
ISS 21 Oct 19:03:30 19:04:34 11° 22° (NNE) 19:05:37 145.800 FM
STRAND 1 21 Oct 19:20:20 19:25:27 61° 101° (ESE) 19:30:31 ?
OPAL 21 Oct 19:22:07 19:25:00 16° 298° (WNW) 19:27:51 ?
HO-68 21 Oct 19:54:07 20:00:23 34° 65° (ENE) 20:06:41 435.675 MHz FM
SO-67 21 Oct 20:13:08 20:13:29 10° 268° (W) 20:13:50 435.3500 MHz FM
RS-15 21 Oct 20:27:25 20:31:31 13° 97° (E) 20:35:35 29.354 - 29.394 USB, Beacon 29.352 USB
KITSAT 1 21 Oct 20:33:27 20:39:40 23° 44° (NE) 20:45:50 435.175 FM
ISS 21 Oct 20:38:33 20:41:51 58° 39° (NE) 20:45:08 145.800 FM
UKube-1 21 Oct 21:00:05 21:03:59 33° 71° (ENE) 21:07:54 145.840 MHz, 145.915 MHz
STRAND 1 21 Oct 21:01:16 21:04:05 15° 297° (WNW) 21:06:53 ?
FUNcube-1 21 Oct 21:33:48 21:37:46 29° 71° (ENE) 21:41:43 145.950 - 145.970 MHz USB
SO-50 21 Oct 21:38:38 21:42:12 20° 48° (NE) 21:45:47 436.795 FM
HO-68 21 Oct 21:41:14 21:47:53 42° 261° (W) 21:54:36 435.675 MHz FM
Oscar 11 21 Oct 21:44:13 21:48:33 85° 258° (WSW) 21:52:54 145.825 FM, Beacon 2401.500 USB
ISS 21 Oct 22:17:00 22:18:09 11° 233° (SW) 22:19:18 145.800 FM
ZACube-1 21 Oct 22:23:43 22:28:20 75° 258° (WSW) 22:32:55 437.345 MHz
KITSAT 1 21 Oct 22:27:52 22:35:57 81° 244° (WSW) 22:44:00 435.175 FM
RS-15 21 Oct 22:30:53 22:41:52 74° 115° (ESE) 22:52:43 29.354 - 29.394 USB, Beacon 29.352 USB
UKube-1 21 Oct 22:37:13 22:40:13 18° 265° (W) 22:43:14 145.840 MHz, 145.915 MHz
FUNcube-1 21 Oct 23:10:25 23:14:05 23° 265° (W) 23:17:45 145.950 - 145.970 MHz USB
SO-50 21 Oct 23:18:19 23:23:01 50° 245° (WSW) 23:27:43 436.795 FM
UOSAT-12 21 Oct 23:20:34 23:23:52 19° 47° (NE) 23:27:07 437.025 FM, 437.400 FM
MaSat-1 21 Oct 23:39:38 23:43:27 31° 108° (ESE) 23:47:01 437.345 MHz
KITSAT 1 22 Oct 00:26:50 00:30:05 13° 261° (W) 00:33:20 435.175 FM
RS-15 22 Oct 00:45:44 00:55:10 32° 318° (NW) 01:04:40 29.354 - 29.394 USB, Beacon 29.352 USB
UOSAT-12 22 Oct 00:59:45 01:04:18 51° 244° (WSW) 01:08:46 437.025 FM, 437.400 FM
MaSat-1 22 Oct 01:16:01 01:19:10 20° 300° (WNW) 01:22:08 437.345 MHz
Oscar 10/S400 22 Oct 01:28:43 02:32:00 21° 246° (WSW) 04:55:28 145.825 - 145.975 CW/USB, Beacon 145.810 USB
Oscar 19 22 Oct 01:33:17 01:37:45 30° 97° (E) 01:42:12 437.125 CW, 437.150 USB
JAS-1B 22 Oct 01:40:30 01:46:40 36° 99° (E) 01:53:49 435.800 - 435.900 CW/SSB
AO-27 22 Oct 01:44:22 01:47:16 15° 92° (E) 01:50:09 436.795 MHz FM
Oscar 16 22 Oct 02:18:00 02:23:09 88° 103° (ESE) 02:28:16 437.025 USB, Beacon 2401.1428
Uribyol 2 22 Oct 02:32:00 02:37:02 48° 100° (E) 02:42:02 436.500 FM
ITAMSAT 1 22 Oct 02:37:10 02:42:16 51° 100° (E) 02:47:19 435.822 SSB
AO-Echo 22 Oct 02:38:06 02:43:25 72° 102° (ESE) 02:48:43 ?
Gurwin Techsat 1B 22 Oct 02:39:06 02:43:35 27° 96° (E) 02:48:01 435.225 FM
TMSAT-1 22 Oct 02:52:26 02:56:52 27° 96° (E) 03:01:16 436.925 FM
RS-15 22 Oct 03:08:02 03:12:43 13° 353° (N) 03:17:26 29.354 - 29.394 USB, Beacon 29.352 USB
Oscar 19 22 Oct 03:12:40 03:16:58 28° 292° (WNW) 03:21:15 437.125 CW, 437.150 USB
AO-27 22 Oct 03:21:58 03:27:06 57° 287° (WNW) 03:32:11 436.795 MHz FM
JAS-1B 22 Oct 03:31:13 03:37:11 38° 290° (WNW) 03:44:09 435.800 - 435.900 CW/SSB
AO-7 22 Oct 03:31:46 03:36:56 18° 93° (E) 03:42:05 29.400 - 29.500 MHz
Sapphire 22 Oct 03:52:17 03:57:19 42° 110° (ESE) 04:02:23 437.095 MHz 1200 baud AX-25 AFSK
Uribyol 2 22 Oct 04:12:33 04:16:06 19° 295° (WNW) 04:19:37 436.500 FM
PCSat 22 Oct 04:14:45 04:20:08 75° 114° (ESE) 04:25:33 145.825 MHz
ITAMSAT 1 22 Oct 04:17:53 04:21:18 18° 295° (WNW) 04:24:44 435.822 SSB
Gurwin Techsat 1B 22 Oct 04:18:48 04:23:30 33° 291° (WNW) 04:28:11 435.225 FM
AO-Echo 22 Oct 04:19:00 04:21:31 14° 297° (WNW) 04:24:03 ?
Uosat F 22 Oct 04:21:00 04:25:12 26° 96° (E) 04:29:22 435.120 FM
TMSAT-1 22 Oct 04:32:02 04:36:45 33° 291° (WNW) 04:41:26 436.925 FM
OPAL 22 Oct 04:53:50 04:58:59 75° 73° (ENE) 05:04:07 ?
JAS-2 22 Oct 04:59:34 05:05:36 24° 92° (E) 05:11:35 435.800 - 435.900 CW/SSB, 435.910 FM
AO-7 22 Oct 05:22:08 05:30:29 83° 289° (WNW) 05:38:49 29.400 - 29.500 MHz
RS-15 22 Oct 05:23:40 05:31:32 21° 30° (NNE) 05:39:34 29.354 - 29.394 USB, Beacon 29.352 USB
Sapphire 22 Oct 05:36:26 05:40:51 25° 307° (NW) 05:45:18 437.095 MHz 1200 baud AX-25 AFSK
Hamsat 22 Oct 05:54:14 05:57:57 30° 97° (E) 06:01:40 145.90 MHz
Uosat F 22 Oct 05:59:31 06:03:56 32° 291° (WNW) 06:08:21 435.120 FM
PCSat 22 Oct 06:00:54 06:04:07 16° 312° (NW) 06:07:22 145.825 MHz
STRAND 1 22 Oct 06:33:33 06:38:37 67° 74° (ENE) 06:43:44 ?
OPAL 22 Oct 06:37:04 06:38:18 11° 267° (W) 06:39:32 ?
JAS-2 22 Oct 06:43:17 06:50:57 66° 287° (WNW) 06:58:39 435.800 - 435.900 CW/SSB, 435.910 FM
Saudisat 1A 22 Oct 06:52:26 06:54:20 13° 108° (ESE) 06:56:15 436.775 MHz
AO-7 22 Oct 07:17:12 07:22:02 17° 307° (NW) 07:26:53 29.400 - 29.500 MHz
Hamsat 22 Oct 07:30:44 07:33:40 19° 291° (WNW) 07:36:36 145.90 MHz
RS-15 22 Oct 07:35:18 07:46:29 68° 57° (ENE) 07:58:07 29.354 - 29.394 USB, Beacon 29.352 USB
SO-67 22 Oct 07:35:34 07:38:59 61° 100° (E) 07:42:23 435.3500 MHz FM
PANSAT 22 Oct 07:35:56 07:36:43 11° 159° (SSE) 07:37:29 not established
STRAND 1 22 Oct 08:16:17 08:18:14 12° 269° (W) 08:20:11 ?
Saudisat 1A 22 Oct 08:29:07 08:33:24 54° 303° (WNW) 08:37:44 436.775 MHz
JAS-2 22 Oct 08:31:47 08:34:35 12° 304° (NW) 08:37:24 435.800 - 435.900 CW/SSB, 435.910 FM
HO-68 22 Oct 09:11:21 09:18:12 45° 100° (E) 09:24:59 435.675 MHz FM
PANSAT 22 Oct 09:13:14 09:16:15 22° 171° (S) 09:19:15 not established
MaSat-1 22 Oct 09:29:15 09:31:09 18° 59° (ENE) 09:32:57 437.345 MHz
Oscar 11 22 Oct 09:35:18 09:38:33 21° 95° (E) 09:41:47 145.825 FM, Beacon 2401.500 USB
RS-15 22 Oct 09:48:44 09:58:02 31° 255° (WSW) 10:07:42 29.354 - 29.394 USB, Beacon 29.352 USB
ZACube-1 22 Oct 10:16:31 10:20:00 24° 95° (E) 10:23:25 437.345 MHz
UKube-1 22 Oct 10:26:23 10:30:47 88° 284° (WNW) 10:35:08 145.840 MHz, 145.915 MHz
PANSAT 22 Oct 10:52:45 10:55:55 25° 184° (S) 10:59:05 not established
HO-68 22 Oct 10:59:27 11:05:37 32° 296° (WNW) 11:11:47 435.675 MHz FM
KITSAT 1 22 Oct 11:00:59 11:06:06 19° 102° (ESE) 11:11:13 435.175 FM
FUNcube-1 22 Oct 11:01:20 11:05:37 87° 102° (ESE) 11:09:47 145.950 - 145.970 MHz USB
Oscar 11 22 Oct 11:11:00 11:14:42 28° 289° (WNW) 11:18:23 145.825 FM, Beacon 2401.500 USB
Oscar 10/S400 22 Oct 11:37:58 12:00:12 29° 152° (SSE) 12:15:36 145.825 - 145.975 CW/USB, Beacon 145.810 USB
ZACube-1 22 Oct 11:52:54 11:56:17 23° 291° (WNW) 11:59:36 437.345 MHz
Oscar 16 22 Oct 11:57:37 11:58:47 11° 61° (ENE) 11:59:58 437.025 USB, Beacon 2401.1428
JAS-1B 22 Oct 12:26:11 12:30:19 20° 65° (ENE) 12:34:17 435.800 - 435.900 CW/SSB
PANSAT 22 Oct 12:33:19 12:35:31 15° 197° (SSW) 12:37:43 not established
Sapphire 22 Oct 12:43:22 12:47:26 21° 51° (NE) 12:51:29 437.095 MHz 1200 baud AX-25 AFSK
Oscar 19 22 Oct 12:47:35 12:52:12 34° 70° (ENE) 12:56:48 437.125 CW, 437.150 USB
KITSAT 1 22 Oct 12:52:27 13:00:32 80° 298° (WNW) 13:08:39 435.175 FM
AO-27 22 Oct 12:59:57 13:03:29 19° 65° (ENE) 13:07:00 436.795 MHz FM
PCSat 22 Oct 13:05:40 13:10:35 34° 56° (NE) 13:15:28 145.825 MHz
ISS 22 Oct 13:18:35 13:21:55 87° 138° (SE) 13:25:15 145.800 FM
SO-50 22 Oct 13:30:26 13:34:54 79° 300° (WNW) 13:39:31 436.795 FM
Oscar 16 22 Oct 13:32:12 13:37:23 84° 257° (WSW) 13:42:34 437.025 USB, Beacon 2401.1428
Uribyol 2 22 Oct 13:47:09 13:52:14 56° 73° (ENE) 13:57:21 436.500 FM
AO-Echo 22 Oct 13:48:29 13:53:15 68° 75° (ENE) 13:58:12 ?
ITAMSAT 1 22 Oct 13:52:29 13:57:35 59° 73° (ENE) 14:02:43 435.822 SSB
